Volver al catálogo

COSMOS 1275 DEB

ActivoPO
NORAD 12737·DEBRIS·🇷🇺 Russia

Lanzado Jun 4, 1981 desde Plesetsk Cosmodrome

Loading…

Próximos Pases (próximas 24 horas)

TLE

ActualizadoSource: Space-Track

Época: Sep 14, 2026, 05:07 UTC

1 12737U 81053CE  26257.21332271  .00000730  00000-0  71116-3 0  9999
2 12737  82.9822 211.9898 0144560 224.0787 203.4180 13.73696091238984

Sigue COSMOS 1275 DEB en tiempo real con AllMySat

Download on the App Store